Starlink 31868

operational
NORAD ID: 59783 Int'l Des: 2024-093 Owner: SPXS Country: US Constellation: starlink
LEOCIRCULAR

About Starlink 31868

Description loading...

Live Position

Loading 3D Globe...

Upcoming Passes

Altitude History

Altitude vs Time

uPlot chart will show altitude changes over time

Two-Line Element Set

1 59783U 24093B 25306.00231761 -.00002550 00000-0 -83195-4 0 9990
2 59783 43.0028 206.7840 0001848 275.2807 84.7833 15.27573173 83207
Epoch: Nov 2, 2025 • Age: 40 hours

Current Status

Altitude 483.0 km
Velocity 7.63 km/s
Sub-Earth Point 16.10°N, 76.79°E
Launch Date May 18, 2024
Age 1.4 years
Type internet

Technical Details

Classification Payload
Mass 730.00 kg
Dry Mass 700.00 kg
Total Mass 730.00 kg
Length 0.30 m
Diameter 4.10 m
Span 29.00 m
Shape Box + pan
Manufacturer SPXS
Bus Type Starlink V2M
Phase Status In Orbit
Owner/State SPXS/US

Large Constellations

Loading constellations...